Wetbulb
67.58 64.50 65.51 62.73 56.26 54.81 53.27 54.57 59.35 58.26 59.20 61.06 61.19 59.37 58.72 59.33 56.74 54.90 68.97 70.91 70.65 71.03 73.15 73.45 74.19 74.14 74.13 73.66 73.23 72.81 72.32 71.36 70.45 69.71 69.18 68.57 67.80 67.34 67.07 67.05 67.29 67.74 67.93 68.12 68.65 68.95 68.90 68.47 68.09
62.38 61.52 62.82 61.35 53.19 51.61 53.01 57.96 57.77 60.14 61.28 62.15 61.05 60.51 59.48 58.12 61.80 62.37 66.43 71.50 71.48 71.62 73.95 72.28 74.52 74.26 74.44 74.01 73.42 73.15 72.82 71.76 71.00 70.35 69.73 69.15 68.94 68.48 68.28 68.17 68.30 68.90 69.17 69.11 69.25 69.78 70.38 69.98 69.51
67.17 62.15 60.14 57.66 55.24 52.27 54.53 58.66 59.99 60.80 61.58 59.33 58.83 60.90 59.63 59.24 62.94 64.27 70.95 71.26 71.24 71.24 74.16 73.51 74.49 74.14 74.44 74.34 73.62 73.40 73.02 72.67 71.71 70.76 70.32 70.01 69.74 69.68 69.71 69.20 69.04 69.21 70.05 70.09 70.03 69.90 70.72 70.94 70.27
60.39 60.85 61.51 56.12 54.50 57.38 57.99 60.56 60.76 60.34 61.24 59.89 59.54 57.86 61.18 63.95 63.04 66.45 69.58 71.19 70.65 70.58 73.89 74.88 74.24 74.12 74.39 74.42 74.09 73.67 73.32 73.12 72.42 71.28 70.86 70.61 70.63 71.35 71.33 69.90 69.75 70.00 70.39 70.86 70.77 70.64 70.53 70.70 70.22
61.84 61.05 55.15 53.89 54.06 57.04 60.22 61.77 62.79 60.98 60.29 59.35 59.57 57.87 59.71 65.11 66.50 67.22 69.37 70.50 70.18 70.06 72.23 75.16 74.41 74.44 74.32 74.64 74.37 73.99 73.62 73.49 73.15 72.22 71.58 71.25 71.80 71.88 71.56 70.90 71.00 71.05 71.32 71.22 70.77 71.29 70.56 70.26 69.89
58.89 59.75 54.54 52.05 53.38 56.24 59.22 60.35 60.46 60.36 60.71 59.77 58.72 58.96 60.05 65.46 65.48 66.20 67.96 69.77 69.91 69.85 71.12 73.46 75.00 74.51 74.39 74.46 74.27 74.06 73.81 73.68 73.49 73.22 72.82 72.28 72.25 72.55 72.11 71.34 71.17 71.07 70.79 70.59 70.44 70.16 69.97 69.80 69.43
56.87 56.87 53.53 53.87 53.61 54.06 56.55 59.77 58.60 58.80 58.97 58.99 61.29 57.29 60.80 63.61 66.27 66.03 67.27 68.82 69.88 69.59 70.18 71.07 75.60 75.12 74.65 74.48 74.24 74.06 74.02 74.01 73.79 73.57 73.16 72.94 72.40 72.63 71.66 70.65 69.92 69.34 69.00 68.95 69.10 69.39 69.69 69.50 69.16
58.29 57.21 53.39 54.47 53.46 53.10 57.52 58.54 60.16 58.67 58.14 61.90 61.53 57.67 58.97 63.61 65.66 65.91 66.33 67.13 68.29 69.62 69.44 70.78 72.86 75.35 74.45 73.58 74.40 74.30 74.14 74.03 73.65 73.36 73.13 72.83 71.91 71.76 70.82 68.76 68.10 67.86 67.33 67.40 67.58 68.01 68.71 69.03 69.40
59.93 53.89 52.03 53.56 54.08 55.24 58.56 57.78 60.21 61.29 59.89 60.85 61.49 61.52 63.00 64.61 65.29 64.92 65.17 65.85 66.82 67.47 70.01 70.29 70.70 73.11 73.91 72.36 73.32 74.43 73.88 73.72 73.59 72.85 72.59 72.18 70.30 69.56 70.14 70.17 67.02 66.50 66.16 66.07 66.61 67.04 67.41 68.06 68.57
56.05 54.05 54.23 57.63 58.06 57.14 58.68 58.83 59.07 59.06 59.37 59.44 60.45 62.75 63.84 64.33 64.28 63.41 62.71 63.25 64.74 66.70 68.35 69.74 73.48 72.12 73.22 71.31 73.20 74.12 73.01 72.74 72.20 71.27 70.68 71.69 70.46 70.15 69.58 69.59 66.54 66.31 66.24 66.36 66.95 67.75 68.31 68.28 67.72
56.82 53.52 57.53 58.57 59.23 59.44 58.98 58.38 59.79 58.70 57.44 59.66 59.12 61.10 62.61 63.15 63.50 63.09 62.81 63.61 64.95 66.34 68.09 69.68 74.15 75.30 74.00 72.27 71.92 73.61 72.56 71.97 71.62 71.48 72.16 72.50 70.15 70.92 70.11 69.25 69.28 68.70 67.26 68.37 67.55 67.85 67.84 67.26 67.85
55.08 57.62 58.29 58.80 59.37 58.43 58.06 59.12 58.38 59.30 59.50 61.66 61.43 62.48 62.63 62.15 62.87 63.08 62.74 63.79 65.31 66.48 66.92 70.35 71.70 74.91 76.10 72.73 70.67 71.94 71.93 71.81 70.86 71.37 72.69 70.98 69.26 70.30 70.00 68.68 68.88 70.25 68.13 68.33 67.60 66.90 69.07 67.42 67.60
55.03 56.10 57.65 58.76 59.01 59.01 59.84 57.91 58.06 58.86 61.10 62.11 62.29 62.19 62.03 62.36 62.90 63.06 63.44 64.44 65.70 66.82 67.65 68.94 72.79 75.10 75.68 76.01 71.83 72.59 72.30 70.65 71.74 70.79 70.98 70.34 69.43 70.60 69.75 70.40 68.72 68.56 67.93 67.93 68.54 68.16 68.13 68.55 67.05
56.94 56.62 56.41 57.36 57.18 58.58 57.45 57.63 58.48 59.40 61.09 60.80 61.05 61.05 61.80 61.98 61.86 62.63 63.17 64.53 65.79 67.34 68.12 69.10 72.56 75.39 75.62 74.58 76.03 74.50 74.79 72.10 70.61 69.94 69.59 70.55 70.24 70.37 68.98 69.06 68.86 70.08 69.81 68.22 67.80 67.17 67.12 66.14 65.14
56.69 54.21 55.81 56.28 56.57 56.04 57.48 54.84 55.62 59.25 60.23 59.67 60.01 60.71 61.08 61.74 61.81 62.26 63.09 65.34 65.94 67.61 69.16 72.93 74.52 75.36 75.72 75.78 75.55 73.41 71.81 71.01 69.88 69.22 71.15 70.31 70.94 70.95 69.90 68.65 70.28 70.22 69.57 69.08 67.88 68.07 67.80 65.85 65.90
53.18 54.20 50.01 54.87 56.18 56.41 55.84 50.57 56.43 59.36 58.54 58.30 59.55 59.68 60.23 60.95 61.41 62.38 63.51 66.69 68.92 69.59 70.73 72.93 70.80 74.49 75.80 75.55 74.66 72.98 71.18 70.33 68.92 68.82 69.55 70.78 70.60 70.34 69.34 69.04 69.81 70.69 69.78 69.80 68.45 65.86 65.81 66.24 63.79
51.94 47.88 49.87 51.87 56.30 55.72 54.47 52.22 56.99 59.39 58.48 58.32 59.33 59.58 59.47 60.40 61.62 64.28 63.72 65.87 68.77 70.84 72.68 72.22 74.16 73.31 75.32 75.94 73.81 73.43 74.30 69.95 68.76 68.84 69.22 69.90 69.97 69.86 70.00 69.39 69.79 70.23 69.54 67.92 66.85 66.33 67.79 65.68 64.60
46.25 47.99 49.64 49.56 53.49 54.60 53.21 53.13 56.27 57.99 57.04 57.19 58.00 58.91 59.34 59.65 60.54 63.22 64.97 66.01 68.49 71.78 73.63 73.91 73.25 74.70 75.71 74.05 74.52 71.38 69.69 69.33 68.81 68.86 68.72 69.56 69.74 69.42 69.96 69.44 69.06 69.37 67.70 66.42 66.76 66.75 66.32 66.46 66.31
49.62 49.03 48.93 51.45 54.46 52.77 52.18 52.51 54.46 56.84 56.63 56.49 57.41 58.49 59.15 59.26 61.09 63.23 64.18 66.84 66.96 69.77 71.01 72.75 72.19 74.09 73.38 71.91 70.29 69.04 67.39 68.60 68.02 68.57 69.58 69.50 69.71 69.99 69.56 68.63 67.75 67.87 68.04 67.24 66.73 65.89 63.23 64.91 66.59
48.40 47.66 48.20 51.45 53.65 52.33 52.30 51.88 54.71 56.03 56.43 56.81 57.28 57.53 58.10 59.00 60.14 61.69 63.76 65.32 68.22 68.82 69.93 70.18 70.72 73.78 73.59 72.25 71.52 70.02 69.57 67.96 68.06 68.28 69.66 69.81 69.41 69.26 68.86 68.11 67.10 67.51 67.75 66.12 65.20 65.09 63.94 64.17 66.38
47.75 47.10 48.01 48.55 52.01 52.58 51.55 49.79 52.04 54.80 55.76 55.93 56.60 57.50 58.22 58.57 59.80 60.98 62.36 64.87 67.86 68.02 68.73 68.93 69.94 72.11 73.43 73.09 71.38 70.37 69.45 68.76 67.26 67.04 67.53 68.76 68.54 68.27 68.19 67.74 67.04 66.90 66.86 65.60 66.17 65.61 63.99 63.08 64.09
44.61 49.91 49.58 49.18 48.35 44.46 51.22 44.17 50.12 52.60 53.25 54.85 56.06 57.24 58.00 59.18 60.35 61.49 61.73 67.01 67.10 67.75 68.89 69.74 70.63 71.56 71.71 72.24 70.30 71.43 66.93 64.99 65.81 67.84 67.45 67.47 67.48 66.91 66.83 67.18 66.78 66.95 66.66 66.07 65.59 65.77 64.76 63.96 62.57
46.83 50.30 49.89 49.45 47.40 46.98 47.12 44.62 47.88 51.96 50.70 52.88 55.27 56.60 58.11 59.18 60.14 60.55 61.88 66.76 67.14 67.95 68.61 70.18 70.23 70.25 70.63 71.25 71.27 67.36 68.42 66.19 66.50 66.56 66.72 67.78 68.27 66.75 65.66 66.57 66.15 66.24 67.28 65.94 65.65 64.50 64.36 66.02 64.99
49.93 48.63 49.37 49.54 47.49 41.81 46.01 45.52 45.72 48.90 51.19 53.36 56.12 57.01 58.21 59.07 60.59 61.52 66.43 66.69 66.91 68.04 68.89 68.96 68.36 68.66 68.74 68.54 68.60 69.10 67.29 66.17 65.19 65.49 65.48 66.11 66.55 66.04 65.91 65.64 65.97 66.37 66.29 65.66 66.31 65.31 64.97 65.99 66.06
48.80 46.92 41.02 39.62 40.24 40.10 47.65 45.16 47.30 52.16 53.38 54.20 54.83 56.31 58.39 60.87 62.77 63.99 64.81 65.12 66.05 66.96 67.44 67.63 67.66 67.16 67.83 67.79 67.55 67.92 67.95 67.42 66.32 65.53 65.52 64.94 65.06 66.22 65.70 65.79 65.92 66.53 66.79 66.38 66.41 65.89 65.82 66.14 65.31
46.97 46.74 41.90 35.96 38.66 41.80 47.70 43.07 47.50 53.88 55.47 56.15 56.77 56.91 61.29 62.33 63.49 63.81 64.80 65.28 65.83 66.40 66.78 66.80 66.84 66.46 67.02 67.06 67.43 67.77 67.96 66.20 65.82 65.86 65.46 64.94 64.63 64.83 65.90 65.87 66.21 66.36 65.83 66.13 66.84 68.08 66.85 66.26 66.44
46.36 44.62 49.06 45.55 46.88 43.76 45.92 48.64 52.44 54.19 54.95 55.74 56.12 57.61 58.08 62.49 63.60 63.91 64.93 65.52 65.70 65.93 66.37 66.69 66.62 66.40 66.71 66.65 67.35 67.66 67.46 66.52 66.50 67.03 66.85 65.65 66.98 64.92 65.45 65.61 65.70 65.86 65.98 65.92 66.23 66.61 65.53 66.02 65.79
47.81 50.09 43.74 45.84 39.51 38.34 43.59 44.72 45.48 50.48 52.43 54.31 55.72 57.54 60.81 62.78 63.52 64.13 64.57 65.10 65.61 65.99 66.61 67.20 66.96 66.23 66.08 66.87 66.84 66.86 66.72 66.75 66.94 66.51 65.82 65.57 65.84 64.93 64.81 64.95 65.56 65.41 65.57 65.64 66.13 66.04 66.30 65.79 65.12
45.82 45.73 46.93 47.68 46.13 41.04 39.55 43.37 51.63 51.89 53.43 54.97 55.76 58.41 61.76 62.78 62.96 63.64 64.30 65.23 65.53 66.05 66.34 66.23 65.74 65.42 65.83 66.39 67.04 66.38 66.22 66.01 66.64 66.08 65.39 65.29 65.48 64.88 64.23 64.47 64.53 64.36 64.67 66.30 66.56 66.02 65.13 64.24 65.44
48.34 47.57 47.83 43.92 43.07 45.42 44.36 44.78 54.50 55.02 55.47 57.33 58.41 60.69 62.21 62.97 63.45 63.89 64.28 64.79 65.02 65.41 65.64 64.80 65.10 64.61 65.60 66.01 66.45 66.38 66.34 66.62 66.26 66.01 65.40 65.49 64.59 64.51 64.27 64.23 64.23 63.98 65.22 65.68 65.48 63.98 64.14 64.24 64.46
MSLP
1012.45 1011.93 1010.45 1009.26 1007.64 1005.13 1002.16 1000.82 1000.00 1000.09 1000.09 1000.38 1000.60 1000.67 1000.22 1000.12 1000.37 1000.68 1002.01 1002.77 1003.57 1004.56 1006.56 1008.02 1008.74 1009.20 1009.64 1010.01 1010.42 1010.81 1011.28 1011.58 1011.82 1012.02 1012.23 1012.45 1012.66 1012.91 1013.11 1013.26 1013.48 1013.64 1013.63 1013.60 1013.75 1013.85 1013.96 1013.97 1013.94
1010.95 1010.65 1009.82 1007.82 1005.69 1002.45 999.99 999.77 999.83 999.62 1000.11 1000.72 1000.58 1000.51 1000.42 1000.09 1000.33 1000.97 1001.28 1003.04 1003.76 1004.72 1006.29 1007.33 1008.58 1009.13 1009.59 1010.04 1010.34 1010.68 1011.12 1011.45 1011.68 1011.92 1012.12 1012.29 1012.53 1012.73 1012.99 1013.21 1013.32 1013.51 1013.56 1013.56 1013.56 1013.62 1013.71 1013.78 1013.78
1011.21 1010.15 1008.38 1006.01 1004.07 1001.29 999.25 1000.18 999.16 999.81 1000.64 1000.69 1000.51 1000.70 1000.60 1000.57 1001.04 1001.71 1002.75 1003.35 1003.81 1004.80 1005.97 1006.84 1008.17 1008.96 1009.43 1009.92 1010.29 1010.57 1010.86 1011.30 1011.57 1011.83 1012.04 1012.21 1012.39 1012.66 1012.80 1012.95 1013.12 1013.24 1013.35 1013.38 1013.35 1013.39 1013.44 1013.50 1013.63
1010.15 1009.72 1008.29 1005.16 1002.27 1000.55 999.78 999.14 999.27 999.97 1000.07 1000.81 1000.55 1000.40 1000.50 1000.85 1001.62 1002.22 1003.00 1003.46 1003.87 1004.75 1005.45 1006.59 1007.86 1008.59 1009.12 1009.67 1010.05 1010.32 1010.63 1011.12 1011.47 1011.62 1011.85 1012.06 1012.23 1012.48 1012.64 1012.74 1012.83 1012.96 1013.07 1013.08 1013.11 1013.13 1013.20 1013.27 1013.41
1009.32 1007.72 1005.84 1003.55 1002.13 1000.58 999.50 999.71 999.64 999.80 999.99 1000.18 1000.29 1000.56 1000.55 1001.39 1002.28 1002.78 1003.15 1003.47 1003.80 1004.67 1005.43 1006.55 1007.78 1008.42 1008.85 1009.45 1009.77 1010.21 1010.38 1010.81 1011.30 1011.53 1011.70 1011.90 1012.11 1012.29 1012.42 1012.57 1012.64 1012.69 1012.76 1012.81 1012.84 1012.81 1012.98 1013.14 1013.14
1008.21 1006.95 1004.77 1002.48 1001.01 1000.09 999.45 999.88 1000.07 999.99 999.87 999.98 1000.18 1000.47 1000.80 1001.18 1001.70 1002.37 1002.84 1003.03 1003.36 1003.80 1004.94 1005.55 1007.52 1008.05 1008.68 1009.21 1009.54 1010.02 1010.21 1010.57 1011.05 1011.42 1011.65 1011.78 1011.93 1012.11 1012.22 1012.33 1012.41 1012.47 1012.53 1012.58 1012.64 1012.65 1012.69 1012.87 1012.96
1007.31 1005.67 1004.18 1002.49 1000.81 999.55 999.21 999.78 1000.02 999.86 999.73 999.80 1000.28 1000.77 1000.98 1000.93 1001.90 1002.36 1002.53 1002.73 1002.86 1003.05 1004.35 1005.06 1006.73 1007.74 1008.57 1009.14 1009.46 1009.77 1010.00 1010.28 1010.72 1011.18 1011.50 1011.65 1011.76 1011.92 1012.05 1012.22 1012.23 1012.32 1012.42 1012.46 1012.38 1012.39 1012.48 1012.62 1012.76
1007.26 1005.77 1004.12 1002.54 1001.30 1000.13 999.63 999.78 1000.33 1000.14 1000.02 1000.07 1001.30 1001.14 1000.65 1000.85 1001.62 1002.17 1001.80 1001.71 1002.04 1002.48 1003.19 1004.57 1005.42 1006.95 1007.95 1008.54 1009.35 1009.64 1009.89 1010.18 1010.44 1010.84 1011.22 1011.47 1011.61 1011.71 1011.84 1011.94 1011.89 1012.07 1012.26 1012.36 1012.30 1012.18 1012.25 1012.34 1012.44
1007.01 1005.67 1003.57 1002.28 1001.24 1000.34 999.92 999.40 999.90 1000.17 1000.97 1000.89 1000.93 1001.00 1001.15 1001.08 1001.54 1001.82 1001.66 1001.47 1001.50 1001.78 1002.37 1003.57 1004.50 1005.76 1007.01 1007.40 1008.38 1009.51 1009.82 1010.10 1010.36 1010.69 1010.98 1011.18 1011.10 1010.73 1010.93 1010.83 1011.41 1011.78 1011.99 1012.07 1012.08 1012.01 1012.01 1012.08 1012.08
1006.38 1004.42 1003.04 1002.21 1000.96 1000.31 999.75 999.43 999.46 999.87 999.92 1000.49 1000.58 1000.57 1000.40 1000.37 1000.69 1000.75 1000.65 1000.47 1000.70 1000.91 1001.75 1002.68 1004.09 1005.03 1006.01 1006.43 1006.95 1008.37 1008.94 1009.51 1009.77 1009.97 1010.11 1010.35 1010.51 1010.37 1010.33 1010.73 1011.22 1011.34 1011.54 1011.65 1011.60 1011.60 1011.65 1011.74 1010.99
1004.93 1003.31 1002.92 1001.78 1001.02 1000.55 1000.03 999.84 999.87 999.71 999.79 1000.28 1000.19 1000.41 1000.58 1000.55 1000.55 1000.48 1000.21 1000.07 1000.12 1000.22 1000.57 1001.75 1003.09 1004.29 1005.10 1005.78 1006.10 1007.31 1007.95 1008.42 1008.84 1009.31 1009.51 1009.66 1009.82 1009.76 1009.77 1009.76 1009.65 1010.46 1010.74 1010.53 1010.59 1010.83 1010.92 1010.30 1010.24
1003.63 1002.78 1002.56 1001.80 1001.32 1000.83 1000.09 999.66 999.31 999.59 999.92 1000.46 1000.18 1000.61 1000.60 1000.51 1000.26 999.95 999.76 999.74 999.58 999.61 1000.07 1000.91 1002.34 1003.78 1004.66 1005.01 1005.44 1006.17 1006.92 1007.30 1007.88 1008.41 1009.13 1009.47 1009.61 1009.64 1009.78 1009.52 1009.21 1009.39 1009.65 1009.54 1009.70 1009.58 1009.87 1010.04 1010.17
1002.03 1001.86 1001.89 1001.36 1001.19 1000.72 1000.03 999.53 999.60 999.10 999.93 1000.15 1000.06 1000.34 1000.36 999.90 999.66 999.53 999.40 999.33 999.40 999.67 999.98 1000.25 1001.53 1003.07 1004.18 1004.96 1004.88 1005.55 1006.08 1006.65 1007.19 1007.73 1008.35 1009.03 1008.96 1008.96 1009.08 1009.15 1009.43 1009.67 1009.55 1009.63 1009.65 1009.76 1010.03 1010.22 1010.31
1001.80 1001.40 1001.06 1000.91 1000.69 1000.29 999.95 999.27 999.40 999.34 999.80 999.63 999.52 999.58 999.66 999.13 998.84 998.91 998.88 998.87 999.01 999.35 999.65 1000.09 1000.85 1002.30 1003.59 1004.43 1004.64 1005.19 1005.60 1006.03 1006.90 1007.16 1007.61 1008.32 1008.63 1008.64 1008.71 1009.03 1009.42 1009.66 1009.70 1009.48 1009.31 1009.72 1009.90 1010.16 1009.98
1001.60 1000.89 1000.37 999.81 999.97 999.59 1000.03 998.89 998.44 999.08 999.16 998.80 998.71 998.48 998.62 998.19 998.16 998.18 998.41 998.47 998.76 999.06 999.29 999.89 1000.31 1001.63 1002.90 1003.95 1004.42 1004.66 1005.03 1005.77 1006.47 1006.89 1007.34 1007.84 1008.29 1008.41 1008.72 1008.80 1009.19 1009.60 1009.61 1009.63 1009.85 1009.70 1009.82 1009.80 1009.57
1001.38 1000.92 999.52 998.80 999.14 999.11 999.69 997.27 998.37 998.83 998.54 998.07 997.42 997.42 997.42 997.41 997.57 997.66 997.92 998.04 998.39 998.76 999.16 999.56 999.77 1000.98 1002.31 1003.30 1003.96 1004.42 1004.62 1005.37 1005.68 1006.16 1006.69 1007.57 1007.98 1008.10 1008.41 1008.61 1009.10 1009.13 1009.30 1009.55 1009.73 1009.88 1009.66 1009.43 1009.68
1000.72 999.01 998.19 998.23 998.37 998.29 998.17 996.84 997.55 997.89 997.83 997.39 997.37 996.90 997.02 997.13 997.17 997.08 997.41 997.60 997.98 998.33 998.74 999.11 999.65 1000.40 1001.98 1003.04 1003.59 1004.31 1004.59 1005.06 1005.27 1005.51 1006.17 1006.66 1007.24 1007.40 1007.91 1008.13 1008.50 1008.70 1008.99 1009.10 1009.23 1009.53 1009.69 1009.42 1009.28
998.63 998.61 998.67 997.59 997.58 997.16 996.79 996.19 996.10 996.23 996.88 996.89 996.76 996.18 995.97 996.22 996.56 996.74 996.58 996.80 997.10 997.58 998.28 998.97 999.52 1000.55 1001.90 1002.89 1003.56 1004.02 1004.32 1004.98 1005.02 1005.37 1005.87 1006.31 1006.76 1006.96 1007.59 1007.78 1008.33 1008.52 1008.57 1008.77 1009.04 1009.10 1009.20 1009.21 1009.28
999.26 998.53 997.35 996.86 996.69 996.69 996.46 995.98 995.49 995.54 996.30 996.24 995.84 995.39 995.10 995.76 996.08 995.89 995.70 995.73 996.21 997.12 997.99 998.98 999.84 1000.77 1001.73 1002.68 1003.16 1003.38 1003.75 1004.45 1004.83 1005.21 1005.77 1006.39 1006.57 1006.70 1007.27 1007.71 1008.13 1008.22 1008.21 1008.40 1008.52 1008.79 1008.99 1009.02 1009.19
999.41 998.49 997.18 997.01 996.65 996.45 996.32 996.10 995.78 995.65 995.38 995.48 995.22 995.06 995.05 995.11 995.13 994.94 994.84 995.27 996.42 997.29 998.48 999.40 1000.11 1000.63 1001.55 1002.11 1002.70 1002.97 1003.49 1004.02 1004.33 1004.77 1005.43 1006.09 1006.29 1006.50 1007.14 1007.59 1007.98 1007.99 1008.09 1008.10 1008.16 1008.49 1008.82 1009.07 1009.13
998.12 997.77 997.48 996.90 996.94 996.64 996.84 995.70 995.24 995.30 995.17 995.11 994.85 994.58 994.29 994.13 994.08 994.17 994.46 994.76 996.58 997.67 998.74 999.55 1000.15 1000.90 1001.59 1001.91 1002.48 1003.17 1003.78 1003.93 1004.44 1004.78 1005.33 1005.57 1006.08 1006.46 1006.91 1007.27 1007.62 1007.54 1007.66 1007.65 1008.08 1008.38 1008.57 1008.69 1008.93
996.89 997.53 997.62 997.54 997.40 996.58 996.77 994.23 994.17 994.08 993.70 993.44 993.14 993.01 992.69 992.91 993.07 993.44 993.70 994.96 996.80 997.90 998.83 999.63 1000.42 1001.17 1001.44 1002.08 1002.70 1003.25 1003.53 1003.66 1003.71 1004.30 1004.69 1005.45 1006.04 1006.63 1006.83 1007.21 1007.28 1007.42 1007.41 1007.75 1007.86 1007.92 1008.06 1008.20 1008.26
995.46 997.34 997.13 997.36 997.31 997.20 996.41 995.29 993.60 993.53 992.70 992.11 991.69 991.63 991.74 991.99 992.33 992.64 993.04 995.16 996.93 998.04 998.95 999.88 1000.78 1001.39 1001.80 1002.29 1002.72 1003.30 1003.25 1003.67 1004.06 1004.49 1005.25 1005.96 1006.36 1006.68 1006.79 1007.01 1007.13 1007.28 1007.56 1007.50 1007.47 1007.56 1007.74 1008.00 1008.08
996.98 997.05 996.93 997.02 996.99 995.76 995.56 995.03 992.24 992.33 991.40 990.82 990.53 990.45 990.39 990.60 991.17 992.04 993.65 995.73 997.13 998.26 999.37 1000.28 1000.95 1001.64 1002.13 1002.45 1002.98 1003.16 1003.63 1003.82 1004.07 1004.68 1005.06 1005.81 1006.34 1006.68 1006.88 1006.63 1006.84 1006.94 1007.13 1007.28 1007.12 1007.14 1007.57 1007.77 1007.77
995.91 996.20 996.00 996.18 995.40 993.89 994.65 993.70 991.57 991.38 990.76 990.51 990.36 990.29 990.24 991.00 991.76 993.09 994.83 996.07 997.34 998.38 999.41 1000.30 1001.03 1001.81 1002.30 1002.68 1003.13 1003.56 1004.02 1004.38 1004.70 1005.03 1004.91 1005.74 1006.18 1006.52 1006.72 1006.73 1006.85 1007.05 1007.30 1007.17 1006.94 1007.06 1007.34 1007.54 1007.56
994.13 994.45 993.67 993.52 993.40 993.23 993.05 991.47 990.50 990.32 990.09 990.29 990.13 990.14 990.61 991.98 992.87 993.99 995.24 996.33 997.40 998.49 999.40 1000.06 1001.10 1001.77 1002.32 1002.75 1003.23 1003.62 1004.08 1004.12 1004.30 1004.97 1004.74 1005.20 1005.72 1006.33 1006.51 1006.74 1006.99 1007.10 1007.13 1007.06 1007.07 1007.11 1007.11 1007.20 1007.29
993.01 993.21 993.20 993.00 992.73 991.73 990.48 990.15 990.16 989.59 989.31 989.58 989.91 989.93 990.62 992.15 993.35 994.38 995.57 996.46 997.49 998.53 999.40 1000.25 1000.98 1001.68 1002.27 1002.83 1003.25 1003.69 1004.21 1004.18 1004.74 1005.21 1005.46 1005.52 1005.89 1006.16 1006.42 1006.57 1006.86 1006.91 1006.59 1006.68 1006.76 1007.03 1006.96 1007.05 1007.11
992.25 992.45 993.22 992.51 991.56 990.70 990.35 989.69 989.17 989.23 989.07 988.75 989.39 989.68 990.97 992.53 993.63 994.77 995.78 996.74 997.82 998.72 999.60 1000.33 1001.03 1001.68 1002.28 1002.78 1003.22 1003.64 1004.12 1004.61 1005.11 1005.42 1005.32 1005.56 1005.94 1006.05 1006.37 1006.43 1006.47 1006.55 1006.34 1006.41 1006.83 1007.05 1007.05 1007.06 1007.11
991.25 990.94 991.80 992.27 991.62 990.63 990.22 989.54 989.31 989.15 989.19 988.51 988.84 989.35 991.23 992.50 993.75 994.91 995.90 997.05 998.05 998.93 999.77 1000.56 1001.11 1001.71 1002.27 1002.72 1003.18 1003.75 1004.17 1004.44 1004.95 1005.40 1005.60 1005.75 1006.25 1006.32 1006.28 1006.32 1006.27 1006.11 1006.15 1006.55 1006.76 1007.10 1007.04 1006.98 1006.95
990.82 990.39 991.10 990.46 990.78 990.50 989.62 989.15 989.18 989.20 989.28 989.15 989.06 990.06 991.59 992.68 993.82 994.85 995.89 997.08 998.03 998.92 999.82 1000.45 1001.06 1001.53 1002.16 1002.47 1002.94 1003.70 1004.23 1004.36 1005.08 1005.50 1005.54 1005.85 1006.16 1006.28 1006.11 1006.15 1006.05 1006.01 1006.42 1006.83 1006.99 1007.16 1007.14 1007.07 1007.05
Wind_Speed
10 12 11 7 9 9 14 13 11 4 10 2 3 7 13 13 10 6 8 7 7 16 20 21 20 19 18 17 16 15 14 13 12 11 11 10 9 7 6 6 5 5 5 5 5 5 5 5 5
12 11 6 9 9 13 13 12 10 5 9 6 9 9 12 9 7 5 6 8 9 17 18 21 20 19 18 16 16 15 14 14 13 12 10 9 8 7 6 6 6 7 7 7 7 7 8 8 7
14 13 9 8 14 15 8 6 6 7 2 5 6 1 8 8 6 6 10 6 12 15 18 18 22 19 18 17 16 15 15 13 13 12 10 9 8 9 9 8 8 9 10 9 9 10 10 9 9
9 8 9 12 18 15 13 5 6 8 8 4 7 11 2 6 3 9 5 7 12 15 17 18 23 20 19 18 17 16 15 14 13 12 11 10 10 9 9 10 10 11 12 13 12 12 12 9 9
11 10 13 15 19 20 8 9 12 11 9 6 3 11 7 16 9 4 3 6 10 13 14 18 22 20 19 18 18 17 16 14 13 12 11 11 10 11 11 11 12 13 14 15 15 14 13 11 9
11 12 15 16 20 18 10 7 11 14 13 10 6 12 8 9 8 5 1 7 10 13 14 17 20 21 19 18 18 16 15 14 13 12 11 11 11 12 12 13 12 12 12 12 12 13 11 10 9
17 14 17 20 19 18 4 4 11 14 12 11 12 5 10 7 8 5 4 6 9 12 15 13 16 18 18 16 15 16 15 14 13 11 10 10 11 12 11 8 8 9 10 11 12 11 10 9 10
15 15 24 20 17 21 16 2 13 9 13 4 2 9 12 14 9 9 12 8 10 12 14 14 14 16 16 16 15 14 14 13 12 11 10 10 10 11 11 9 13 12 8 9 10 11 12 11 10
17 16 18 24 22 19 20 15 16 1 10 16 14 13 14 16 8 11 12 13 11 9 11 13 15 15 16 16 16 14 15 14 11 11 11 8 9 11 13 14 9 6 7 8 9 10 11 13 14
21 18 25 23 20 18 21 22 19 17 13 16 16 18 18 12 12 14 15 13 16 13 13 14 12 14 16 13 15 15 14 11 10 11 10 9 9 9 6 6 7 9 11 11 12 12 12 11 11
25 25 25 24 24 25 25 27 25 21 21 22 18 18 19 19 17 18 16 17 15 15 11 14 14 13 14 13 10 8 8 9 9 12 10 8 6 7 6 6 7 9 14 8 13 12 10 9 5
29 31 28 28 29 29 32 31 29 24 21 23 19 18 19 21 19 17 17 17 16 14 12 16 16 14 13 11 11 10 10 9 8 10 11 7 6 8 7 6 7 4 5 6 6 5 1 4 6
33 31 30 31 31 34 31 29 33 26 22 24 25 20 22 21 21 18 17 17 16 15 14 11 17 16 13 13 11 10 10 9 9 8 9 8 8 7 7 5 5 7 5 7 3 4 0 3 5
32 32 33 33 33 31 34 33 29 26 25 28 27 22 24 25 20 17 17 16 15 15 13 12 18 16 16 14 11 10 7 9 9 8 8 11 8 6 7 6 6 7 8 8 6 4 5 4 5
33 36 35 34 31 32 23 32 36 29 27 28 29 24 25 23 19 16 15 14 14 13 12 10 14 17 17 16 14 11 11 10 10 8 8 8 8 8 8 8 5 7 4 7 5 7 5 7 7
33 32 30 32 34 31 28 35 30 27 27 29 26 21 24 18 20 17 17 13 12 11 11 11 13 18 17 16 13 11 11 11 10 8 8 10 10 9 8 8 7 7 6 6 7 5 7 9 7
26 28 38 32 30 29 31 37 31 27 26 27 28 28 17 20 22 19 18 15 12 12 10 12 14 17 17 15 13 12 10 10 9 7 7 8 9 9 7 7 7 8 6 7 7 8 8 8 6
29 32 31 33 28 28 33 35 32 28 21 25 27 26 23 20 25 22 19 16 13 11 9 10 12 13 16 13 10 11 10 9 8 7 7 7 7 6 4 6 7 7 6 6 6 9 7 6 6
29 26 31 32 28 28 29 30 31 19 23 27 27 28 22 21 26 22 19 15 11 9 9 11 12 13 13 12 13 12 11 9 8 6 6 6 7 5 5 5 7 6 6 7 8 7 5 6 6
31 32 32 29 27 21 22 23 25 25 24 25 27 26 24 24 26 24 19 13 7 7 10 13 14 14 13 11 10 9 8 9 7 7 6 5 6 6 3 5 6 8 6 8 8 8 6 4 5
32 31 29 29 24 20 19 27 27 24 27 26 28 29 28 27 24 20 17 9 7 10 12 14 14 15 13 12 8 6 5 4 4 5 6 8 6 6 4 5 6 6 6 3 6 7 9 6 6
32 28 27 23 20 18 20 22 23 20 23 24 22 22 21 20 20 19 18 10 9 11 13 14 15 16 13 12 10 10 8 7 4 1 2 3 2 3 2 4 6 6 4 3 6 7 7 9 7
33 25 24 23 21 22 23 18 16 21 22 24 24 22 21 19 20 20 13 13 11 12 13 15 17 15 14 11 10 9 6 5 3 2 2 3 1 3 6 5 5 6 2 4 4 5 5 5 6
26 27 24 18 17 21 21 20 22 19 20 18 13 13 17 18 19 9 14 14 13 14 15 16 18 15 14 12 11 7 5 2 2 3 2 4 3 3 4 5 3 1 3 3 5 4 6 4 5
29 22 16 16 19 19 18 19 20 18 17 18 16 16 3 6 10 11 14 15 16 17 18 17 17 16 14 12 10 9 7 5 4 3 5 5 4 4 6 3 2 1 3 5 3 5 4 5 3
31 29 15 26 11 16 23 17 16 14 9 10 13 11 13 6 9 12 15 16 18 19 19 18 17 16 14 12 10 8 8 7 4 3 3 6 5 4 6 3 4 2 4 4 3 4 3 4 3
37 30 30 22 22 12 14 10 14 17 14 13 13 9 9 11 12 15 16 17 19 18 18 17 17 15 13 12 9 8 6 3 8 5 3 5 4 7 5 3 3 4 7 3 2 1 1 2 3
36 25 26 22 23 14 14 8 10 5 9 7 13 10 13 14 16 17 17 18 17 17 16 16 15 14 13 12 9 8 7 6 6 5 4 4 6 4 4 3 4 2 4 2 2 1 3 4 4
29 26 29 20 17 14 12 10 4 5 10 7 13 12 15 16 17 18 18 18 17 16 16 14 14 13 12 11 8 7 5 7 6 4 6 5 6 5 5 5 4 3 2 1 1 3 3 4 4
30 27 32 16 22 17 9 6 6 5 3 3 3 13 16 17 18 18 19 18 17 17 16 14 13 12 11 10 9 6 6 4 5 6 7 7 6 5 5 4 4 4 5 2 2 4 2 5 5
Wind_Direction
185 203 225 218 236 231 250 234 274 201 212 111 306 288 333 344 328 2 102 98 129 144 154 169 172 171 168 168 166 166 169 173 174 175 176 178 180 189 197 200 211 219 226 229 232 231 247 260 260
193 197 226 273 252 230 233 210 179 225 15 327 288 267 246 280 353 347 69 121 162 145 158 176 175 173 171 172 172 170 174 179 181 185 188 190 197 206 222 237 244 244 246 252 255 253 238 233 244
261 207 255 229 235 265 303 33 234 87 262 280 277 133 318 329 58 353 64 143 159 155 165 179 170 174 175 178 178 176 178 184 188 195 199 207 214 226 232 242 254 259 260 259 260 262 259 241 232
194 207 253 261 256 232 286 272 59 249 184 217 314 286 352 94 347 32 53 164 163 170 174 158 166 177 180 184 182 183 181 188 196 200 209 221 233 240 242 250 256 264 264 262 262 261 262 246 244
219 253 246 241 245 268 268 274 313 304 282 251 222 303 322 81 77 59 93 184 192 177 183 154 167 179 184 189 185 188 186 189 200 207 214 227 239 247 253 260 263 261 263 265 265 265 263 260 259
222 239 251 250 245 247 226 274 274 272 273 282 209 261 305 116 60 41 5 186 211 185 182 161 171 178 189 193 189 192 189 190 199 211 219 229 242 253 259 263 266 270 271 273 280 281 275 261 259
237 244 249 269 279 282 267 287 280 264 273 281 4 320 300 112 59 333 290 265 218 207 178 191 175 186 190 196 196 193 191 191 196 207 219 231 247 265 275 269 267 266 269 275 276 276 274 265 252
246 250 266 268 262 270 281 348 261 281 275 15 50 286 308 341 3 314 288 259 251 214 189 202 182 183 199 197 201 198 193 194 194 201 215 234 255 260 247 243 238 248 260 269 272 273 269 260 252
236 252 251 252 258 264 263 245 244 162 286 298 299 288 284 275 293 281 289 280 264 260 204 197 195 187 197 201 191 193 199 199 196 206 213 219 249 266 221 222 144 181 240 255 260 262 261 258 256
226 241 241 257 265 275 283 289 287 269 238 261 272 280 272 312 291 291 293 269 270 227 221 206 198 193 194 212 192 195 199 205 207 217 224 213 243 260 314 328 181 201 220 232 235 238 234 237 245
232 240 252 260 266 277 282 275 281 272 275 281 287 294 303 296 297 288 281 281 272 279 211 216 178 188 202 204 188 187 200 201 203 218 221 230 250 251 240 239 218 212 201 233 201 220 229 227 254
243 238 247 261 269 279 276 281 282 269 277 279 284 284 296 294 289 288 294 286 279 258 256 195 195 184 195 206 200 194 198 194 203 201 214 228 233 225 235 262 281 230 249 261 270 268 45 307 269
238 244 252 260 266 267 270 272 281 272 271 279 286 284 276 276 279 275 284 275 263 262 265 239 186 177 188 217 200 199 204 192 201 212 198 222 239 237 254 258 290 290 277 279 279 298 99 240 255
246 253 254 258 264 264 267 272 265 260 259 266 274 265 273 273 279 281 278 274 264 261 258 242 183 177 184 200 223 185 198 188 203 214 218 199 238 242 257 254 238 239 253 261 269 245 263 266 246
258 259 260 255 255 261 268 270 263 265 266 268 271 267 267 265 265 271 278 271 265 259 251 235 190 176 183 196 208 190 189 209 194 215 212 223 221 235 255 268 263 260 260 251 256 281 269 259 256
251 254 260 252 252 248 246 260 263 273 272 263 272 264 276 262 272 273 280 270 261 260 257 210 205 178 181 189 199 199 197 193 203 204 209 202 225 240 265 259 260 258 247 236 239 244 248 254 265
243 243 241 253 247 251 244 252 256 255 266 273 265 263 274 269 275 276 272 267 253 250 240 224 203 188 181 192 196 197 196 193 204 202 211 214 227 239 240 256 272 271 248 231 226 228 235 259 239
228 237 246 257 260 249 250 254 259 258 269 267 269 276 258 263 274 277 271 267 246 236 227 210 195 185 177 189 195 194 183 200 203 201 220 228 239 241 241 264 264 255 239 236 228 233 230 229 250
244 249 249 249 253 241 252 264 274 276 256 262 269 273 270 269 274 271 269 263 246 252 208 193 175 184 172 191 193 192 183 196 196 209 214 237 248 242 269 262 259 260 258 246 240 236 244 236 244
243 249 251 263 269 275 274 275 272 270 277 280 277 280 278 271 271 267 261 262 194 199 188 183 183 174 177 182 195 188 192 184 196 198 198 223 262 275 264 239 246 250 249 234 229 227 227 233 222
230 236 246 255 266 273 280 270 266 263 265 262 261 262 259 258 259 267 266 231 183 186 180 179 175 166 182 172 171 150 168 151 172 200 213 211 220 260 238 253 250 254 243 261 239 233 226 225 211
237 230 244 260 271 261 254 269 262 268 270 271 274 271 268 261 258 246 249 139 178 176 168 162 160 163 164 154 154 162 178 196 183 201 33 347 202 303 273 258 233 225 243 231 238 226 225 218 214
241 237 240 237 249 262 255 260 273 265 265 262 260 255 258 255 244 248 231 142 166 153 155 148 149 160 140 170 158 172 204 154 175 183 110 206 196 259 264 198 207 219 198 242 226 216 198 219 204
236 235 242 245 254 247 244 257 266 271 273 280 306 264 252 243 228 210 109 139 144 149 145 147 151 143 158 149 146 195 138 131 167 196 272 127 202 213 254 209 208 141 225 232 224 175 186 207 210
220 217 223 226 226 246 247 247 261 274 282 287 289 279 113 58 112 137 147 151 151 148 147 149 147 149 150 147 153 138 149 143 183 226 179 163 184 191 205 185 197 207 229 237 202 202 203 194 209
217 208 213 218 215 234 223 243 255 266 289 268 284 228 129 154 146 155 154 149 148 146 149 146 149 149 152 151 153 148 136 179 198 190 14 115 199 191 145 193 120 218 202 216 214 229 213 224 205
212 210 217 250 216 251 245 200 241 248 250 232 237 194 174 144 153 147 145 148 145 147 148 149 148 148 152 154 150 144 177 116 71 98 191 132 214 118 176 144 175 210 210 196 228 289 238 265 234
229 203 209 223 239 219 235 254 264 194 313 196 196 176 129 148 146 143 146 144 142 146 144 146 148 151 153 156 154 149 149 153 139 159 199 154 103 150 167 186 195 181 223 148 128 243 229 225 244
207 209 212 219 229 229 246 256 69 265 246 261 197 146 144 153 146 150 145 141 144 142 144 147 148 153 156 155 162 132 154 160 151 161 162 149 159 171 200 194 229 225 173 74 209 188 231 180 237
213 208 202 216 207 238 211 227 152 88 274 257 306 124 150 151 152 148 143 149 148 147 150 152 153 151 160 168 141 145 140 148 152 180 157 164 173 190 215 202 226 244 91 81 167 135 158 178 199